[[{"header":{"parameterUnit":"m.s-1","parameterCategory":1,"la1":30.2991,"la2":30.254,"lo1":-89.0895,"lo2":-89.0444,"dy":0.0017,"dx":0.0017,"nx":28,"ny":28,"refTime":"2025-08-03T03:00:00:Z","depth":0,"parameterNumber":2,"parameterNumberName":"U-component_of_WINDS"},"data":[0,0,0,0,0,0,0,0,0,0,0,0,0,0,0,0,0,0,0,0,0,0,0,0,0,0,0,0,0,0,0,0,0,0,0,0,0,0,0,0,0,0,0,0,0,0,0,0,0,0,0,0,0,0,0,0,0,0,0.2772,0.2772,0,0.2815,0.2816,0.2816,0.2891,0.2892,0.2894,0.2895,0.2937,0.2937,0.2937,0,0,0,0,0,0,0,0,0,0,0,0,0,0.2752,0.2752,0.2772,0.2772,0.2773,0.2815,0.2816,0.2816,0.2891,0.2892,0.2894,0.2896,0.2937,0.2937,0.2937,0,0,0,0,0,0,0,0,0,0,0,0,0,0.2774,0.2752,0.2772,0.2815,0.282,0.2815,0.2816,0.2817,0.289,0.2892,0.2895,0.2897,0.2937,0.2937,0.2937,0.2893,0,0,0.2936,0.2936,0,0,0,0,0,0,0,0,0.2773,0.2775,0.2808,0.2812,0.2817,0.285,0.2824,0.2842,0.289,0.2863,0.2895,0.2898,0.2906,0.2909,0.2912,0.2895,0.2896,0.2936,0.2936,0.2935,0.2935,0,0,0,0,0,0,0,0.2771,0.2773,0.2789,0.2809,0.2814,0.2832,0.2837,0.2828,0.2872,0.2866,0.2871,0.2876,0.2909,0.2912,0.2914,0.2897,0.2936,0.2936,0.2935,0.2935,0.2845,0.2843,0,0,0,0,0,0,0.2763,0.2772,0.2788,0.279,0.28,0.2831,0.2837,0.2837,0.2873,0.288,0.2874,0.2879,0.2912,0.2914,0.2915,0.2866,0.2935,0.2935,0.2935,0.2847,0.2845,0.2842,0,0,0,0,0,0,0.2763,0.2764,0.2786,0.2782,0.2787,0.2829,0.2829,0.2837,0.284,0.2879,0.2887,0.2869,0.2913,0.2916,0.2898,0.2868,0.2935,0.2935,0.285,0.2847,0.2844,0.2766,0,0,0,0,0,0,0.2762,0.2763,0.2747,0.2782,0.2786,0.2768,0.2827,0.2836,0.284,0.2847,0.2876,0.2883,0.2915,0.2898,0.2897,0.2869,0.2935,0.2853,0.2848,0.2845,0.2771,0.276,0.2751,0,0,0,0,0,0.2761,0.2723,0.2746,0.2748,0.2768,0.2766,0.2769,0.2807,0.2837,0.2821,0.2846,0.2882,0.2872,0.2895,0.2896,0.2866,0.2855,0.285,0.2845,0.2776,0.2762,0.2751,0,0,0,0,0,0,0.2684,0.2729,0.2754,0.2727,0.2742,0.2779,0.276,0.2792,0.2798,0.2804,0.2851,0.2857,0.2833,0.2848,0.2874,0.2826,0.2869,0.2864,0.2816,0.2804,0.2794,0.279,0.2934,0,0,0,0,0,0.2664,0.266,0.2699,0.2671,0.2677,0.2717,0.2718,0.2746,0.2763,0.277,0.2793,0.2808,0.2808,0.2807,0.2809,0.2774,0.2781,0.2754,0.2744,0.2736,0.273,0.2712,0.2701,0.2826,0.2826,0.2826,0,0,0.2622,0.2646,0.264,0.2656,0.2671,0.2665,0.2722,0.2713,0.2708,0.2768,0.2753,0.277,0.279,0.2763,0.2752,0.2775,0.2698,0.2729,0.2722,0.2722,0.2706,0.2694,0.2684,0.2823,0.2823,0.2824,0,0,0.2543,0.2561,0.254,0.2554,0.2576,0.2603,0.2598,0.2629,0.2644,0.2629,0.2674,0.2669,0.2668,0.268,0.2686,0.2612,0.2645,0.2611,0.2558,0.254,0.253,0.2521,0.2494,0.2484,0.2606,0.2606,0.2606,0,0.2488,0.2481,0.2524,0.2513,0.2518,0.2573,0.2551,0.2562,0.2584,0.2586,0.2611,0.2612,0.2629,0.2605,0.2587,0.259,0.2585,0.2608,0.2528,0.252,0.2513,0.2487,0.2477,0.2602,0.2602,0.2603,0.2603,0,0.2412,0.2407,0.2387,0.2407,0.241,0.2393,0.2433,0.2431,0.2459,0.2483,0.2467,0.249,0.2497,0.2494,0.2521,0.2474,0.2488,0.252,0.2564,0.2496,0.2472,0.2463,0.2595,0.2597,0.2598,0.2599,0,0,0.2284,0.2329,0.2321,0.2331,0.236,0.2356,0.2342,0.235,0.2347,0.236,0.2349,0.2347,0.2377,0.2384,0.2413,0.2398,0.2336,0.2432,0.2433,0.2413,0.2285,0.226,0.2248,0.2359,0.2358,0.2356,0.2283,0,0.2211,0.2189,0.2228,0.2197,0.2192,0.2244,0.2232,0.2248,0.227,0.2268,0.2293,0.229,0.2331,0.2335,0.2322,0.2346,0.2311,0.2353,0.2348,0.2347,0.234,0.2236,0.221,0.214,0.2275,0.2273,0.2272,0,0.2121,0.2131,0.2099,0.213,0.213,0.2118,0.2129,0.2127,0.2146,0.2163,0.2171,0.2205,0.2193,0.2236,0.2219,0.2246,0.2247,0.2259,0.2257,0.2257,0.2305,0.2232,0.2118,0.2107,0.2258,0.2259,0.226,0,0.203,0.2035,0.2017,0.2024,0.206,0.205,0.2065,0.2086,0.2089,0.2098,0.21,0.2107,0.2111,0.2115,0.2151,0.2179,0.2129,0.2176,0.2142,0.2141,0.2128,0.2128,0.2011,0.213,0.213,0.213,0.213,0,0.1943,0.1922,0.1977,0.1965,0.1943,0.1987,0.1964,0.1983,0.2002,0.1995,0.2041,0.2033,0.2081,0.2078,0.2106,0.2087,0.2088,0.2101,0.2109,0.2097,0.2095,0.2097,0.2102,0.2127,0.2128,0.2129,0.2129,0,0.1837,0.1874,0.1857,0.1893,0.1901,0.1883,0.1913,0.1904,0.1929,0.192,0.192,0.1959,0.1958,0.1995,0.2001,0.202,0.1988,0.2005,0.1982,0.1987,0.1951,0.1953,0.183,0.1816,0.1944,0.1943,0.1942,0,0.1779,0.1764,0.1798,0.1797,0.1809,0.1807,0.181,0.1853,0.1854,0.1875,0.1863,0.1866,0.1871,0.1867,0.1896,0.1901,0.1917,0.1874,0.1918,0.1906,0.1916,0.1916,0.1914,0.1864,0.1862,0.1861,0.186,0,0.1671,0.169,0.1693,0.1702,0.1704,0.1713,0.1725,0.1722,0.1769,0.1768,0.1768,0.1772,0.1779,0.1781,0.1791,0.1806,0.184,0.1846,0.1838,0.1825,0.1812,0.1818,0.1955,0.1848,0.185,0.185,0.1851,0.1852,0.1587,0.1576,0.1598,0.16,0.1614,0.1624,0.1617,0.1641,0.1643,0.1652,0.1677,0.1673,0.1693,0.171,0.1722,0.1718,0.174,0.1729,0.1726,0.1722,0.1715,0.1814,0.1721,0.1721,0.1721,0.1722,0.1722,0,0.1481,0.1498,0.1499,0.1515,0.1516,0.155,0.1565,0.1563,0.1559,0.1575,0.1579,0.1579,0.1581,0.161,0.1616,0.1608,0.1624,0.1608,0.1608,0.1611,0.1696,0.1702,0.1595,0.1595,0.1595,0.1595,0.1595,0.1595,0.1426,0.1409,0.143,0.142,0.1437,0.1434,0.144,0.1449,0.1462,0.146,0.1462,0.1482,0.1502,0.151,0.1514,0.1522,0.1522,0.15,0.1514,0.1593,0.1605,0.1616,0.1622,0.15,0.15,0.1429,0.1428,0.1427]},{"header":{"parameterUnit":"m.s-1","parameterCategory":1,"la1":30.2991,"la2":30.254,"lo1":-89.0895,"lo2":-89.0444,"dy":0.0017,"dx":0.0017,"nx":28,"ny":28,"refTime":"2025-08-03T03:00:00:Z","depth":0,"parameterNumber":3,"parameterNumberName":"V-component_of_WINDS"},"data":[0,0,0,0,0,0,0,0,0,0,0,0,0,0,0,0,0,0,0,0,0,0,0,0,0,0,0,0,0,0,0,0,0,0,0,0,0,0,0,0,0,0,0,0,0,0,0,0,0,0,0,0,0,0,0,0,0,0,-3.3908,-3.3908,0,-3.3931,-3.3932,-3.3932,-3.3871,-3.387,-3.3868,-3.3866,-3.3888,-3.389,-3.3892,0,0,0,0,0,0,0,0,0,0,0,0,0,-3.3809,-3.3811,-3.3908,-3.3908,-3.3909,-3.3931,-3.3932,-3.3932,-3.3872,-3.3869,-3.3867,-3.3865,-3.3887,-3.389,-3.3893,0,0,0,0,0,0,0,0,0,0,0,0,0,-3.3844,-3.3812,-3.3908,-3.3881,-3.3879,-3.3931,-3.3932,-3.3932,-3.3872,-3.3869,-3.3867,-3.3864,-3.3886,-3.389,-3.3893,-3.3971,0,0,-3.3904,-3.3905,0,0,0,0,0,0,0,0,-3.3842,-3.3848,-3.3885,-3.3883,-3.3881,-3.3896,-3.3905,-3.3945,-3.3873,-3.3875,-3.3866,-3.3863,-3.3893,-3.3895,-3.3906,-3.3972,-3.3973,-3.3904,-3.3906,-3.3908,-3.3909,0,0,0,0,0,0,0,-3.384,-3.3847,-3.3917,-3.3886,-3.3883,-3.3867,-3.3869,-3.3912,-3.3899,-3.3874,-3.387,-3.3874,-3.3891,-3.3903,-3.3906,-3.3973,-3.3904,-3.3907,-3.3909,-3.3911,-3.4103,-3.4106,0,0,0,0,0,0,-3.3841,-3.3845,-3.3916,-3.3918,-3.3854,-3.3872,-3.3874,-3.3894,-3.3899,-3.3897,-3.3876,-3.3871,-3.3898,-3.3902,-3.3906,-3.3997,-3.3908,-3.3911,-3.3913,-3.41,-3.4104,-3.4107,0,0,0,0,0,0,-3.3839,-3.3848,-3.3915,-3.388,-3.3888,-3.3876,-3.3899,-3.3896,-3.3907,-3.39,-3.3897,-3.3891,-3.3896,-3.3901,-3.3955,-3.3997,-3.3912,-3.3916,-3.4097,-3.4101,-3.4105,-3.4179,0,0,0,0,0,0,-3.3837,-3.3848,-3.3878,-3.3881,-3.389,-3.3965,-3.3902,-3.3898,-3.3914,-3.3907,-3.3913,-3.3911,-3.3894,-3.395,-3.3959,-3.4,-3.3918,-3.4093,-3.4099,-3.4104,-3.4173,-3.4186,-3.4197,0,0,0,0,0,-3.3833,-3.3898,-3.388,-3.3889,-3.3927,-3.3967,-3.3972,-3.3952,-3.3917,-3.3947,-3.3942,-3.3911,-3.3991,-3.3956,-3.3965,-3.4008,-3.409,-3.4097,-3.4103,-3.4168,-3.4183,-3.4196,0,0,0,0,0,0,-3.3899,-3.3898,-3.3878,-3.3946,-3.3957,-3.3957,-3.3994,-3.3969,-3.399,-3.3983,-3.3957,-3.3958,-3.4017,-3.4018,-3.3979,-3.4083,-3.4034,-3.4043,-3.408,-3.4095,-3.4107,-3.4104,-3.3921,0,0,0,0,0,-3.3922,-3.3955,-3.3952,-3.4012,-3.4019,-3.4006,-3.4022,-3.4006,-3.4016,-3.4021,-3.402,-3.4031,-3.4058,-3.4077,-3.4102,-3.4173,-3.4173,-3.4207,-3.4219,-3.4229,-3.4236,-3.4273,-3.4288,-3.4129,-3.4129,-3.4129,0,0,-3.3968,-3.3972,-3.3994,-3.4025,-3.4032,-3.4066,-3.401,-3.4049,-3.4073,-3.4026,-3.4077,-3.4077,-3.4087,-3.4149,-3.4177,-3.4152,-3.428,-3.4237,-3.4245,-3.4247,-3.4281,-3.4296,-3.431,-3.4134,-3.4133,-3.4132,0,0,-3.407,-3.4077,-3.4127,-3.4135,-3.4147,-3.4137,-3.4149,-3.4153,-3.4151,-3.4202,-3.4167,-3.4195,-3.4244,-3.4252,-3.4263,-3.4368,-3.4339,-3.4376,-3.4438,-3.4473,-3.4486,-3.4497,-3.4533,-3.4546,-3.4384,-3.4385,-3.4385,0,-3.4127,-3.4177,-3.4156,-3.4197,-3.421,-3.417,-3.422,-3.4228,-3.4247,-3.4257,-3.423,-3.4289,-3.4293,-3.4356,-3.4382,-3.4393,-3.4404,-3.4375,-3.4486,-3.4497,-3.4507,-3.454,-3.4554,-3.4389,-3.4388,-3.4388,-3.4388,0,-3.4245,-3.4281,-3.432,-3.4339,-3.4357,-3.4403,-3.4387,-3.4408,-3.439,-3.4383,-3.4434,-3.4438,-3.4462,-3.4477,-3.4459,-3.4537,-3.4521,-3.4491,-3.4441,-3.4526,-3.4558,-3.4571,-3.4395,-3.4394,-3.4392,-3.4391,0,0,-3.4389,-3.4396,-3.441,-3.4418,-3.4427,-3.4454,-3.4497,-3.4521,-3.4539,-3.4554,-3.4588,-3.463,-3.4601,-3.4613,-3.4596,-3.4628,-3.4709,-3.4593,-3.4592,-3.4613,-3.4793,-3.4815,-3.4831,-3.469,-3.4693,-3.4695,-3.4792,0,-3.4488,-3.4562,-3.4544,-3.4617,-3.4648,-3.461,-3.4647,-3.4657,-3.4652,-3.4677,-3.4671,-3.4701,-3.4661,-3.4668,-3.4698,-3.4693,-3.4744,-3.4686,-3.4721,-3.4722,-3.4718,-3.4847,-3.4871,-3.4963,-3.4804,-3.4806,-3.4808,0,-3.4614,-3.4634,-3.471,-3.4713,-3.4726,-3.476,-3.478,-3.4805,-3.4814,-3.4808,-3.4822,-3.4799,-3.484,-3.4791,-3.4846,-3.4807,-3.482,-3.482,-3.4823,-3.4824,-3.4769,-3.4851,-3.4991,-3.5005,-3.4827,-3.4825,-3.4824,0,-3.471,-3.4755,-3.4806,-3.4814,-3.4819,-3.4844,-3.4847,-3.4854,-3.4869,-3.4887,-3.4896,-3.4918,-3.493,-3.4948,-3.4931,-3.4897,-3.4988,-3.4938,-3.4983,-3.4984,-3.5003,-3.5002,-3.5146,-3.5015,-3.5014,-3.5014,-3.5014,0,-3.4822,-3.487,-3.4848,-3.488,-3.4932,-3.491,-3.4962,-3.496,-3.4967,-3.4996,-3.4965,-3.4993,-3.497,-3.4996,-3.4983,-3.503,-3.5036,-3.5031,-3.5027,-3.5033,-3.5034,-3.5041,-3.5033,-3.5018,-3.5017,-3.5016,-3.5016,0,-3.4937,-3.4925,-3.4978,-3.4978,-3.498,-3.5018,-3.5018,-3.5046,-3.5039,-3.5077,-3.5084,-3.5073,-3.5102,-3.5087,-3.5117,-3.5108,-3.5169,-3.5157,-3.5166,-3.5162,-3.5207,-3.5203,-3.536,-3.5379,-3.5237,-3.5238,-3.5239,0,-3.5008,-3.5044,-3.5049,-3.5067,-3.5072,-3.5101,-3.5117,-3.5096,-3.5114,-3.5127,-3.5153,-3.518,-3.5199,-3.5247,-3.5241,-3.5264,-3.5251,-3.5304,-3.5254,-3.5259,-3.525,-3.5247,-3.525,-3.5314,-3.5316,-3.5317,-3.5318,0,-3.5137,-3.5129,-3.5153,-3.5175,-3.5194,-3.521,-3.5224,-3.524,-3.522,-3.5241,-3.527,-3.5285,-3.5316,-3.5342,-3.5361,-3.5363,-3.5337,-3.5335,-3.5346,-3.5352,-3.5355,-3.5352,-3.5192,-3.5331,-3.5329,-3.5328,-3.5328,-3.5327,-3.5231,-3.526,-3.5268,-3.5295,-3.5303,-3.5317,-3.5343,-3.5339,-3.5363,-3.5387,-3.5373,-3.5407,-3.5414,-3.5438,-3.5444,-3.5469,-3.5448,-3.5465,-3.5469,-3.5473,-3.5478,-3.5352,-3.5473,-3.5473,-3.5472,-3.5472,-3.5472,0,-3.5356,-3.5359,-3.5385,-3.5404,-3.5426,-3.54,-3.5413,-3.5432,-3.5463,-3.5472,-3.5493,-3.5526,-3.5551,-3.5547,-3.5569,-3.559,-3.5579,-3.5597,-3.5594,-3.5595,-3.5497,-3.5484,-3.5606,-3.5606,-3.5606,-3.5606,-3.5605,-3.5605,-3.5423,-3.5472,-3.5465,-3.5516,-3.5518,-3.5552,-3.5561,-3.5573,-3.558,-3.5619,-3.5639,-3.5637,-3.564,-3.5663,-3.5684,-3.5682,-3.5691,-3.5713,-3.5707,-3.5615,-3.5602,-3.5589,-3.5577,-3.5716,-3.5716,-3.5802,-3.5803,-3.5804]}]]